Hourly Data Report for August 16, 2020

OTTAWA INTL A
ONTARIO
Current Station Operator: NAVCAN

45°19'00.000" N
75°40'00.000" W
114.90 m
6106001
71628
YOW

Download Data

Hourly Data (August 2020)
Hourly Data Report for August 16, 2020
TIME
LST
Temp Definition
°C
Dew Point Definition
°C
Rel Hum Definition
%
Precip. Amount Definition
mm

Wind Dir Definition
10's deg

Wind Spd Definition
km/h
Visibility Definition
km
Stn Press Definition
kPa
Hmdx Definition


Wind Chill Definition


Weather Definition


00:00 19.8 15.3 75   10 16 24.1 100.22     LegendNANA
01:00 18.6 15.1 79   8 9 24.1 100.21     Mostly Cloudy
02:00 17.2 15.0 87   8 9 24.1 100.21     LegendNANA
03:00 17.3 15.0 86   13 11 24.1 100.19     LegendNANA
04:00 16.8 14.6 86   10 6 24.1 100.20     Mostly Cloudy
05:00 15.8 14.4 91   9 8 24.1 100.22     LegendNANA
06:00 16.6 14.9 90   6 9 24.1 100.23     LegendNANA
07:00 17.9 15.7 87   9 11 24.1 100.25     Mainly Clear
08:00 21.2 16.9 76   13 11 24.1 100.23 26   LegendNANA
09:00 22.6 17.0 70   13 14 24.1 100.23 28   LegendNANA
10:00 23.8 17.7 69   15 12 24.1 100.21 30   Clear
11:00 26.1 18.1 61   16 12 24.1 100.14 32   LegendNANA
12:00 27.1 17.7 56   13 12 24.1 100.10 33   LegendNANA
13:00 28.1 18.3 55   12 20 24.1 100.03 34   Mostly Cloudy
14:00 27.6 17.1 52   14 19 24.1 99.95 33   LegendNANA
15:00 22.0 18.7 81   30 15 16.1 99.97 29   Thunderstorms,Rain Showers
16:00 19.4 17.9 91   33 22 12.9 99.98     Rain Showers
17:00 18.8 17.8 94   28 12 9.7 100.07     Thunderstorms,Moderate Rain Showers,Fog
18:00 18.4 17.4 94   27 13 12.9 99.95     Rain Showers
19:00 18.6 17.9 95   1 10 24.1 99.89     Mostly Cloudy
20:00 17.9 17.3 96   13 4 24.1 99.92     LegendNANA
21:00 17.5 17.2 98   27 10 24.1 99.95     LegendNANA
22:00 17.8 17.6 99   26 7 16.1 99.92     Cloudy
23:00 17.9 17.3 96   29 8 6.4 99.89     Moderate Rain Showers,Fog

Notes on Data Quality.

Legend

  • E = Estimated
  • M = Missing
  • NA = Not Available*
  • [empty] = Indicates an unobserved value
Date modified: